Skip Page Navigation
NASA JPL Caltech
NASA Logo - Jet Propulsion Laboratory + View the NASA Portal
+ Near-Earth Object (NEO) Program
Search JPL
JPL Home Earth Solar System Stars & Galaxies Technology
JPL Solar System Dynamics
BODIES ORBITS EPHEMERIDES TOOLS PHYSICAL DATA DISCOVERY FAQ SITE MAP
JPL Small-Body Database Browser
Search: [ help ]  
(2011 SR5)
Classification: Apollo [NEO, PHA]          SPK-ID: 3578629
Ephemeris | Orbit Diagram | Orbital Elements | Physical Parameters | Close-Approach Data ]

[ hide orbit diagram ]
Orbit Diagram
Note: Make sure you have Java enabled on your browser to see the applet. This applet is provided as a 3D orbit visualization tool. The applet was implemented using 2-body methods, and hence should not be used for determining accurate long-term trajectories (over several years or decades) or planetary encounter circumstances. For accurate long-term ephemerides, please instead use our Horizons system.
Orbit Viewer

Additional Notes: the orbits shown in the applet are color coded. The planets are white lines, and the asteroid/comet is a blue line. The bright white line indicates the portion of the orbit that is above the ecliptic plane, and the darker portion is below the ecliptic plane. Likewise for the asteroid/comet orbit, the light blue indicates the portion above the ecliptic plane, and the dark blue the portion below the ecliptic plane.

Orbit Viewer applet originally written and kindly provided by Osamu Ajiki (AstroArts), and further modified by Ron Baalke (JPL).


Orbital Elements at Epoch 2456400.5 (2013-Apr-18.0) TDB
Reference: JPL 9 (heliocentric ecliptic J2000)
 Element Value Uncertainty (1-sigma)   Units 
e .7058098020344676 1.9839e-06  
a 1.17815010303278 1.7698e-06 AU
q .3466002120443258 1.8249e-06 AU
i 29.10240123713385 0.00011031 deg
node 180.204005440923 1.0923e-05 deg
peri 305.4612298896026 0.00012047 deg
M 40.05386370078347 0.00081796 deg
tp 2456348.531368563965
(2013-Feb-25.03136856)
0.0009442 JED
period 467.088704768494
1.28
0.0010525
2.882e-06
d
yr
n .7707315469733506 1.7367e-06 deg/d
Q 2.009699994021234 3.0189e-06 AU
  Orbit Determination Parameters
   # obs. used (total)      194  
   data-arc span      303 days  
   first obs. used      2011-09-19  
   last obs. used      2012-07-18  
   planetary ephem.      DE405  
   SB-pert. ephem.      SB405-CPV-2  
   condition code      3  
   fit RMS      .36777  
   data source      ORB  
   producer      Otto Matic  
   solution date      2012-Jul-22 10:50:03  

Additional Information
 Earth MOID = .000953722 AU 
 T_jup = 5.006 
[ show covariance matrix ]

Ephemeris | Orbit Diagram | Orbital Elements | Physical Parameters | Close-Approach Data ]

Physical Parameter Table
Parameter Symbol Value Units Sigma Reference Notes
absolute magnitude H 20.968 mag .76666 9 autocmod 2.5b

[ show close-approach data ]
Ephemeris | Orbit Diagram | Orbital Elements | Physical Parameters | Close-Approach Data ]
ABOUT SSD CREDITS/AWARDS PRIVACY/COPYRIGHT GLOSSARY LINKS
FirstGov 2013-May-23 23:53 UT
(server date/time)  
NASA Home Page
Site Manager:   Donald K. Yeomans
Webmaster  Alan B. Chamberlin